Location: Bois de la Silve
(44.4667°N, 6.7833°E)
Time: 00:30:46
(UTC+00:00)

USA 238 DEB - Pass Details

Date: 25 October 2020
Orbit: 1001 x 1211 km, 63.5° (Epoch: 22 November)

Event Time Altitude Azimuth Distance (km) Brightness Sun altitude
Exits shadow 01:15:02 11° 83° (E) 2,757 6.2 -49.0°
Drops below altitude 10° 01:15:37 10° 78° (ENE) 2,847 6.3 -49.0°
Sets 01:19:54 0° 53° (NE) 3,849 7.3 -48.4°
